Flag for United Kingdom Weather past 2 weeks in Lerwick (Shetland Islands), Scotland, United Kingdom

Now
53 °F

Light rain. Overcast.


Feels Like: 49 °F
Forecast: 51 / 59 °F
Wind: 15 mph from Southeast

Location: Lerwick

Current Time: Jul 2, 2015 at 2:28:19 AM

Latest Report: Jul 2, 2015 at 1:00 AM


Visibility: 4 mi

Pressure: 29.95 "Hg

Humidity: 96%

Dew point: 52 °F

Location of Lerwick (Shetland Islands)Location

Historic Weather in Lerwick (Shetland Islands) — Graph

°F

Lerwick (Shetland Islands) temperature yesterday

Maximum temperature yesterday: 58 °F (at 2:00 PM)
Minimum temperature yesterday: 53 °F (at 12:00 AM)
Average temperature yesterday: 55 °F

Past Weeks' High & Low Weather Summary

 TemperatureHumidityPressure
High58 °F (Jul 1, 2:00 PM)100% (Jun 17, 3:00 AM)30.12 "Hg (Jun 17, 3:00 AM)
Low42 °F (Jun 20, 2:00 AM)65% (Jun 24, 6:00 PM)29.71 "Hg (Jun 17, 12:00 PM)
Average50 °F91%29.93 "Hg
* Reported Jun 17 1:00 AM — Jul 2 1:00 AM, Lerwick (Shetland Islands), Weather by CustomWeather, © 2015

Note: Actual official high and low records may vary slightly from our data, if they occured in-between our weather recording intervals... More about our weather records

Advertising

Lerwick (Shetland Islands) weather history for previous 24 hours

 ConditionsComfort  
Time TempWeatherWind HumidityBarometerVisibility
1:00 AM
Thu, Jul 2
53 °FLight rain. Overcast.15 mph96%29.95 "Hg4 mi
12:00 AM53 °FLight rain. Overcast.9 mph94%29.94 "Hg5 mi
11:00 PM
Wed, Jul 1
54 °FOvercast.13 mph93%29.98 "Hg6 mi
10:00 PM54 °FOvercast.10 mph92%29.95 "Hg6 mi
9:00 PM54 °FOvercast.13 mph94%29.97 "Hg6 mi
8:00 PM54 °FLight rain. Overcast.15 mph92%29.98 "Hg5 mi
7:00 PM55 °FOvercast.13 mph91%29.98 "Hg6 mi
6:00 PM57 °FPartly sunny.16 mph87%29.97 "Hg8 mi
5:00 PM57 °FPartly sunny.16 mph86%29.98 "Hg8 mi
4:00 PM56 °FPartly sunny.14 mph88%29.99 "Hg7 mi
3:00 PM57 °FPartly sunny.16 mph87%29.99 "Hg7 mi
2:00 PM58 °FPassing clouds.16 mph87%30.00 "Hg7 mi
1:00 PM56 °FScattered clouds.15 mph89%30.00 "Hg6 mi
12:00 PM57 °FOvercast.13 mph90%30.00 "Hg7 mi
11:00 AM56 °FOvercast.13 mph89%30.01 "Hg7 mi
10:00 AM57 °FOvercast.13 mph87%30.00 "Hg8 mi
9:00 AM55 °FOvercast.18 mph91%29.98 "Hg7 mi
2:00 AM53 °FFog.7 mph97%29.95 "Hg4 mi
Weather by CustomWeather, © 2015

See weather overviewHow to use our weather pages